| time (UTC) | temp F | wind direction | speed MPH | gust MPH | rain 1hr in | rain 24hr in | rain mn in | humidity % | barometer mb |
| 20260903093521 | 69 | 0 | 0.0 | 2.0 | 0.00 | 0.01 | 0.00 | 95 | 1014.2 |
| 20260903093042 | 69 | 138 | 1.0 | 2.0 | 0.00 | 0.01 | 0.00 | 95 | 1014.0 |
| 20260903092519 | 69 | 0 | 0.0 | 1.0 | 0.00 | 0.01 | 0.00 | 95 | 1014.1 |
| 20260903092015 | 69 | 0 | 0.0 | 2.0 | 0.00 | 0.01 | 0.00 | 95 | 1014.0 |
| 20260903091551 | 69 | 138 | 0.0 | 2.0 | 0.00 | 0.01 | 0.00 | 95 | 1013.9 |
| 20260903091019 | 69 | 0 | 0.0 | 2.0 | 0.00 | 0.01 | 0.00 | 95 | 1014.0 |
| 20260903090519 | 68 | 138 | 0.0 | 2.0 | 0.00 | 0.01 | 0.00 | 95 | 1013.9 |
| 20260903090039 | 68 | 0 | 0.0 | 0.0 | 0.00 | 0.01 | 0.00 | 95 | 1013.9 |
| 20260903085519 | 68 | 0 | 0.0 | 0.0 | 0.00 | 0.01 | 0.00 | 95 | 1013.9 |
| 20260903085018 | 68 | 0 | 0.0 | 0.0 | 0.00 | 0.01 | 0.00 | 95 | 1013.8 |
| 20260903084534 | 68 | 0 | 0.0 | 0.0 | 0.00 | 0.01 | 0.00 | 95 | 1013.9 |
| 20260903084018 | 68 | 0 | 0.0 | 0.0 | 0.00 | 0.01 | 0.00 | 95 | 1013.8 |
| 20260903083517 | 68 | 0 | 0.0 | 2.0 | 0.00 | 0.01 | 0.00 | 95 | 1013.8 |
| 20260903083039 | 68 | 0 | 0.0 | 2.0 | 0.00 | 0.01 | 0.00 | 95 | 1013.9 |
| 20260903082519 | 68 | 0 | 0.0 | 0.0 | 0.00 | 0.01 | 0.00 | 95 | 1013.9 |
| 20260903082021 | 68 | 0 | 0.0 | 0.0 | 0.00 | 0.01 | 0.00 | 95 | 1013.8 |
| 20260903081540 | 68 | 0 | 0.0 | 0.0 | 0.00 | 0.01 | 0.00 | 95 | 1013.8 |
| 20260903081020 | 69 | 0 | 0.0 | 0.0 | 0.00 | 0.01 | 0.00 | 95 | 1013.9 |
| 20260903080517 | 68 | 0 | 0.0 | 0.0 | 0.00 | 0.01 | 0.00 | 95 | 1013.9 |
| 20260903080043 | 68 | 0 | 0.0 | 0.0 | 0.00 | 0.01 | 0.00 | 95 | 1014.0 |
| 20260903075521 | 68 | 0 | 0.0 | 2.0 | 0.00 | 0.01 | 0.00 | 95 | 1013.9 |
| 20260903075018 | 69 | 0 | 0.0 | 2.0 | 0.00 | 0.01 | 0.00 | 95 | 1014.0 |
| 20260903074539 | 68 | 138 | 0.0 | 0.0 | 0.00 | 0.01 | 0.00 | 95 | 1014.0 |
| 20260903074016 | 69 | 0 | 0.0 | 0.0 | 0.00 | 0.01 | 0.00 | 95 | 1014.1 |
| 20260903073516 | 69 | 0 | 0.0 | 0.0 | 0.00 | 0.01 | 0.00 | 95 | 1014.0 |
| 20260903073040 | 69 | 0 | 0.0 | 0.0 | 0.00 | 0.01 | 0.00 | 95 | 1014.0 |
| 20260903072521 | 69 | 0 | 0.0 | 0.0 | 0.00 | 0.01 | 0.00 | 95 | 1014.0 |
| 20260903072019 | 69 | 0 | 0.0 | 0.0 | 0.00 | 0.01 | 0.00 | 95 | 1013.9 |
| 20260903071542 | 69 | 0 | 0.0 | 0.0 | 0.00 | 0.01 | 0.00 | 95 | 1014.0 |
| 20260903071018 | 69 | 0 | 0.0 | 0.0 | 0.00 | 0.01 | 0.00 | 95 | 1014.0 |
| 20260903070520 | 69 | 0 | 0.0 | 1.0 | 0.00 | 0.01 | 0.00 | 95 | 1014.1 |
| 20260903070039 | 69 | 0 | 0.0 | 1.0 | 0.00 | 0.01 | 0.00 | 95 | 1014.2 |
| 20260903065521 | 69 | 0 | 0.0 | 1.0 | 0.00 | 0.01 | 0.00 | 95 | 1014.2 |
| 20260903065018 | 69 | 0 | 0.0 | 0.0 | 0.00 | 0.01 | 0.00 | 95 | 1014.2 |
| 20260903064534 | 69 | 0 | 0.0 | 0.0 | 0.00 | 0.01 | 0.00 | 95 | 1014.2 |
| 20260903064020 | 69 | 0 | 0.0 | 0.0 | 0.00 | 0.01 | 0.00 | 95 | 1014.2 |
| 20260903063522 | 69 | 0 | 0.0 | 0.0 | 0.00 | 0.01 | 0.00 | 95 | 1014.2 |
| 20260903063048 | 69 | 0 | 0.0 | 0.0 | 0.00 | 0.01 | 0.00 | 95 | 1014.2 |
| 20260903062520 | 69 | 0 | 0.0 | 0.0 | 0.00 | 0.01 | 0.00 | 95 | 1014.3 |
| 20260903062021 | 69 | 0 | 0.0 | 0.0 | 0.00 | 0.01 | 0.00 | 95 | 1014.4 |
| 20260903061549 | 69 | 0 | 0.0 | 2.0 | 0.00 | 0.01 | 0.00 | 95 | 1014.4 |
| 20260903061021 | 69 | 0 | 0.0 | 2.0 | 0.00 | 0.01 | 0.00 | 95 | 1014.4 |
| 20260903060519 | 69 | 138 | 0.0 | 2.0 | 0.00 | 0.01 | 0.00 | 95 | 1014.3 |
| 20260903060057 | 70 | 0 | 0.0 | 2.0 | 0.00 | 0.01 | 0.00 | 95 | 1014.5 |
| 20260903055517 | 70 | 138 | 0.0 | 2.0 | 0.00 | 0.01 | 0.00 | 95 | 1014.5 |
| 20260903055020 | 70 | 138 | 0.0 | 2.0 | 0.00 | 0.01 | 0.00 | 95 | 1014.5 |
| 20260903054541 | 70 | 0 | 0.0 | 2.0 | 0.00 | 0.01 | 0.00 | 95 | 1014.4 |
| 20260903054019 | 70 | 0 | 0.0 | 2.0 | 0.00 | 0.01 | 0.00 | 95 | 1014.5 |
| 20260903053520 | 70 | 0 | 0.0 | 2.0 | 0.00 | 0.01 | 0.00 | 95 | 1014.4 |
| 20260903053043 | 70 | 0 | 0.0 | 2.0 | 0.00 | 0.01 | 0.00 | 95 | 1014.4 |
| 20260903052524 | 70 | 138 | 0.0 | 2.0 | 0.00 | 0.01 | 0.00 | 95 | 1014.4 |
| 20260903052021 | 70 | 138 | 0.0 | 2.0 | 0.00 | 0.01 | 0.00 | 95 | 1014.5 |
| 20260903051544 | 70 | 138 | 0.0 | 2.0 | 0.00 | 0.01 | 0.00 | 95 | 1014.4 |
| 20260903051021 | 70 | 0 | 0.0 | 2.0 | 0.00 | 0.01 | 0.00 | 95 | 1014.3 |
| 20260903050520 | 70 | 138 | 0.0 | 2.0 | 0.00 | 0.01 | 0.00 | 94 | 1014.2 |
| 20260903050046 | 70 | 138 | 0.0 | 2.0 | 0.00 | 0.01 | 0.00 | 94 | 1014.2 |
| 20260903045520 | 70 | 132 | 1.0 | 2.0 | 0.00 | 0.01 | 0.01 | 94 | 1014.2 |
| 20260903045023 | 70 | 0 | 1.0 | 2.0 | 0.00 | 0.01 | 0.01 | 94 | 1014.3 |
| 20260903044540 | 70 | 159 | 1.0 | 2.0 | 0.00 | 0.01 | 0.01 | 94 | 1014.2 |
| 20260903044024 | 70 | 159 | 1.0 | 2.0 | 0.00 | 0.01 | 0.01 | 94 | 1014.2 |
| 20260903043518 | 70 | 155 | 0.0 | 2.0 | 0.00 | 0.01 | 0.01 | 94 | 1014.2 |
| 20260903043044 | 70 | 0 | 0.0 | 2.0 | 0.00 | 0.01 | 0.01 | 94 | 1014.2 |
| 20260903042518 | 70 | 116 | 1.0 | 2.0 | 0.00 | 0.01 | 0.01 | 94 | 1014.2 |
| 20260903042020 | 70 | 117 | 0.0 | 2.0 | 0.00 | 0.01 | 0.01 | 94 | 1014.2 |
| 20260903041539 | 70 | 84 | 0.0 | 2.0 | 0.00 | 0.01 | 0.01 | 94 | 1014.1 |
| 20260903041022 | 70 | 84 | 0.0 | 4.0 | 0.00 | 0.01 | 0.01 | 93 | 1014.0 |
| 20260903040521 | 70 | 38 | 1.0 | 4.0 | 0.00 | 0.01 | 0.01 | 93 | 1013.9 |
| 20260903040045 | 70 | 58 | 1.0 | 3.0 | 0.00 | 0.01 | 0.01 | 93 | 1013.9 |
| 20260903035523 | 71 | 43 | 1.0 | 3.0 | 0.00 | 0.01 | 0.01 | 93 | 1013.9 |
| 20260903035021 | 71 | 35 | 1.0 | 3.0 | 0.00 | 0.01 | 0.01 | 92 | 1013.9 |
| 20260903034541 | 71 | 44 | 2.0 | 4.0 | 0.00 | 0.01 | 0.01 | 92 | 1013.8 |
| 20260903034020 | 71 | 62 | 2.0 | 4.0 | 0.00 | 0.01 | 0.01 | 92 | 1013.8 |
| 20260903033520 | 72 | 59 | 2.0 | 3.0 | 0.00 | 0.01 | 0.01 | 92 | 1013.8 |
| 20260903033037 | 72 | 54 | 2.0 | 2.0 | 0.00 | 0.01 | 0.01 | 92 | 1013.8 |
| 20260903032524 | 72 | 0 | 0.0 | 2.0 | 0.00 | 0.01 | 0.01 | 91 | 1013.8 |
| 20260903032019 | 72 | 104 | 0.0 | 2.0 | 0.00 | 0.01 | 0.01 | 91 | 1013.8 |
| 20260903031541 | 72 | 104 | 0.0 | 2.0 | 0.00 | 0.01 | 0.01 | 91 | 1013.7 |
| 20260903031023 | 73 | 104 | 0.0 | 2.0 | 0.00 | 0.01 | 0.01 | 90 | 1013.7 |
| 20260903030516 | 74 | 0 | 0.0 | 0.0 | 0.00 | 0.01 | 0.01 | 90 | 1013.7 |
| 20260903030048 | 74 | 0 | 0.0 | 0.0 | 0.00 | 0.01 | 0.01 | 91 | 1013.7 |
| 20260903025517 | 73 | 0 | 0.0 | 0.0 | 0.00 | 0.01 | 0.01 | 91 | 1013.7 |
| 20260903025018 | 74 | 0 | 0.0 | 0.0 | 0.00 | 0.01 | 0.01 | 90 | 1013.7 |
| 20260903024537 | 74 | 0 | 0.0 | 0.0 | 0.00 | 0.01 | 0.01 | 90 | 1013.7 |
| 20260903024020 | 74 | 0 | 0.0 | 0.0 | 0.00 | 0.01 | 0.01 | 90 | 1013.7 |
| 20260903023525 | 74 | 0 | 0.0 | 0.0 | 0.00 | 0.01 | 0.01 | 91 | 1013.8 |
| 20260903023038 | 74 | 0 | 0.0 | 0.0 | 0.00 | 0.01 | 0.01 | 91 | 1013.6 |
| 20260903022517 | 74 | 0 | 0.0 | 0.0 | 0.00 | 0.01 | 0.01 | 90 | 1013.7 |
| 20260903022023 | 74 | 0 | 0.0 | 0.0 | 0.00 | 0.01 | 0.01 | 90 | 1013.8 |
| 20260903021546 | 74 | 0 | 0.0 | 0.0 | 0.00 | 0.01 | 0.01 | 89 | 1013.8 |
| 20260903021016 | 74 | 0 | 0.0 | 0.0 | 0.00 | 0.01 | 0.01 | 88 | 1013.8 |
| 20260903020518 | 75 | 0 | 0.0 | 0.0 | 0.00 | 0.01 | 0.01 | 88 | 1013.7 |
| 20260903020040 | 75 | 0 | 0.0 | 0.0 | 0.00 | 0.01 | 0.01 | 88 | 1013.7 |
| 20260903015519 | 75 | 0 | 0.0 | 0.0 | 0.00 | 0.01 | 0.01 | 88 | 1013.7 |
| 20260903015019 | 75 | 0 | 0.0 | 0.0 | 0.00 | 0.01 | 0.01 | 87 | 1013.6 |
| 20260903014550 | 75 | 0 | 0.0 | 2.0 | 0.00 | 0.01 | 0.01 | 87 | 1013.6 |
| 20260903014024 | 76 | 0 | 0.0 | 2.0 | 0.00 | 0.01 | 0.01 | 87 | 1013.6 |
| 20260903013522 | 76 | 0 | 0.0 | 2.0 | 0.00 | 0.01 | 0.01 | 86 | 1013.6 |
| 20260903013038 | 76 | 0 | 0.0 | 0.0 | 0.00 | 0.01 | 0.01 | 85 | 1013.5 |
| 20260903012519 | 77 | 0 | 0.0 | 0.0 | 0.00 | 0.01 | 0.01 | 85 | 1013.5 |
| 20260903012020 | 77 | 0 | 0.0 | 2.0 | 0.00 | 0.01 | 0.01 | 84 | 1013.4 |
| 20260903011546 | 77 | 0 | 0.0 | 2.0 | 0.00 | 0.01 | 0.01 | 84 | 1013.3 |
| 20260903011021 | 77 | 0 | 0.0 | 2.0 | 0.00 | 0.01 | 0.01 | 82 | 1013.2 |
| 20260903010522 | 78 | 83 | 0.0 | 2.0 | 0.00 | 0.01 | 0.01 | 81 | 1013.2 |
| 20260903010040 | 78 | 0 | 0.0 | 2.0 | 0.00 | 0.01 | 0.01 | 80 | 1013.2 |
| 20260903005516 | 79 | 0 | 0.0 | 2.0 | 0.00 | 0.01 | 0.01 | 80 | 1013.0 |
| 20260903005019 | 79 | 0 | 0.0 | 2.0 | 0.00 | 0.01 | 0.01 | 80 | 1013.0 |
| 20260903004539 | 79 | 0 | 0.0 | 0.0 | 0.00 | 0.01 | 0.01 | 79 | 1012.9 |
| 20260903004020 | 79 | 0 | 0.0 | 0.0 | 0.00 | 0.01 | 0.01 | 78 | 1012.9 |
| 20260903003534 | 79 | 0 | 0.0 | 0.0 | 0.00 | 0.01 | 0.01 | 78 | 1012.9 |
| 20260903003039 | 80 | 0 | 0.0 | 0.0 | 0.00 | 0.01 | 0.01 | 77 | 1012.9 |
| 20260903002519 | 81 | 0 | 0.0 | 0.0 | 0.00 | 0.01 | 0.01 | 75 | 1012.9 |
| 20260903002020 | 81 | 0 | 0.0 | 0.0 | 0.00 | 0.01 | 0.01 | 75 | 1012.8 |
| 20260903001537 | 81 | 0 | 0.0 | 2.0 | 0.00 | 0.01 | 0.01 | 75 | 1013.0 |
| 20260903001019 | 81 | 0 | 0.0 | 2.0 | 0.00 | 0.01 | 0.01 | 75 | 1013.0 |
| 20260903000519 | 82 | 320 | 1.0 | 2.0 | 0.00 | 0.01 | 0.01 | 74 | 1012.9 |
| 20260903000050 | 83 | 0 | 0.0 | 2.0 | 0.00 | 0.01 | 0.01 | 72 | 1012.8 |
| 20260902235518 | 84 | 0 | 0.0 | 2.0 | 0.00 | 0.01 | 0.01 | 70 | 1013.0 |
| 20260902235021 | 85 | 0 | 0.0 | 2.0 | 0.00 | 0.01 | 0.01 | 69 | 1013.0 |
| 20260902234542 | 85 | 252 | 1.0 | 2.0 | 0.00 | 0.01 | 0.01 | 69 | 1012.8 |
| 20260902234019 | 86 | 264 | 0.0 | 2.0 | 0.00 | 0.01 | 0.01 | 66 | 1012.8 |
| 20260902233520 | 86 | 250 | 1.0 | 2.0 | 0.00 | 0.01 | 0.01 | 66 | 1012.9 |
| 20260902233047 | 86 | 324 | 1.0 | 3.0 | 0.00 | 0.01 | 0.01 | 65 | 1012.9 |
| 20260902232520 | 86 | 257 | 1.0 | 4.0 | 0.00 | 0.01 | 0.01 | 65 | 1012.8 |
| 20260902232016 | 86 | 301 | 1.0 | 4.0 | 0.00 | 0.01 | 0.01 | 64 | 1012.8 |
| 20260902231540 | 86 | 300 | 2.0 | 8.0 | 0.00 | 0.01 | 0.01 | 65 | 1012.9 |
| 20260902231019 | 86 | 307 | 2.0 | 8.0 | 0.00 | 0.01 | 0.01 | 64 | 1012.8 |
| 20260902230516 | 86 | 259 | 3.0 | 8.0 | 0.00 | 0.01 | 0.01 | 64 | 1012.9 |
| 20260902230049 | 86 | 244 | 3.0 | 9.0 | 0.00 | 0.01 | 0.01 | 65 | 1012.9 |
| 20260902225518 | 86 | 255 | 3.0 | 9.0 | 0.00 | 0.01 | 0.01 | 65 | 1013.1 |
| 20260902225021 | 87 | 271 | 3.0 | 10.0 | 0.00 | 0.01 | 0.01 | 66 | 1013.0 |
| 20260902224539 | 87 | 298 | 2.0 | 10.0 | 0.00 | 0.01 | 0.01 | 65 | 1013.0 |
| 20260902224020 | 87 | 249 | 3.0 | 8.0 | 0.00 | 0.01 | 0.01 | 65 | 1013.1 |
| 20260902223520 | 86 | 270 | 3.0 | 8.0 | 0.00 | 0.01 | 0.01 | 65 | 1013.1 |
| 20260902223036 | 87 | 250 | 3.0 | 8.0 | 0.00 | 0.01 | 0.01 | 66 | 1013.1 |
| 20260902222519 | 86 | 242 | 4.0 | 9.0 | 0.00 | 0.01 | 0.01 | 66 | 1013.1 |
| 20260902222016 | 85 | 305 | 4.0 | 9.0 | 0.00 | 0.01 | 0.01 | 66 | 1013.1 |
| 20260902221534 | 86 | 273 | 3.0 | 9.0 | 0.00 | 0.01 | 0.01 | 66 | 1013.2 |
| 20260902221018 | 86 | 280 | 2.0 | 9.0 | 0.00 | 0.01 | 0.01 | 66 | 1013.2 |
| 20260902220518 | 86 | 291 | 4.0 | 9.0 | 0.00 | 0.01 | 0.01 | 66 | 1013.2 |
| 20260902220049 | 86 | 307 | 3.0 | 7.0 | 0.00 | 0.01 | 0.01 | 67 | 1013.2 |
| 20260902215520 | 86 | 298 | 3.0 | 7.0 | 0.00 | 0.01 | 0.01 | 67 | 1013.0 |
| 20260902215018 | 86 | 308 | 3.0 | 8.0 | 0.00 | 0.01 | 0.01 | 66 | 1013.0 |
| 20260902214558 | 86 | 246 | 4.0 | 8.0 | 0.00 | 0.01 | 0.01 | 66 | 1013.2 |
| 20260902214018 | 86 | 244 | 3.0 | 8.0 | 0.00 | 0.01 | 0.01 | 66 | 1013.2 |
| 20260902213520 | 86 | 247 | 4.0 | 10.0 | 0.00 | 0.01 | 0.01 | 66 | 1013.2 |
| 20260902213038 | 86 | 288 | 5.0 | 11.0 | 0.00 | 0.01 | 0.01 | 67 | 1013.3 |
| 20260902212523 | 86 | 254 | 5.0 | 11.0 | 0.00 | 0.01 | 0.01 | 66 | 1013.3 |
| 20260902212018 | 86 | 264 | 6.0 | 11.0 | 0.00 | 0.01 | 0.01 | 66 | 1013.3 |
| 20260902211535 | 86 | 267 | 5.0 | 11.0 | 0.00 | 0.01 | 0.01 | 65 | 1013.2 |
| 20260902211021 | 86 | 269 | 6.0 | 11.0 | 0.00 | 0.01 | 0.01 | 65 | 1013.4 |
| 20260902210519 | 86 | 241 | 4.0 | 11.0 | 0.00 | 0.01 | 0.01 | 65 | 1013.3 |
| 20260902210042 | 87 | 238 | 4.0 | 11.0 | 0.00 | 0.01 | 0.01 | 66 | 1013.4 |
| 20260902205519 | 86 | 304 | 5.0 | 11.0 | 0.00 | 0.01 | 0.01 | 66 | 1013.3 |
| 20260902205018 | 87 | 317 | 4.0 | 12.0 | 0.00 | 0.01 | 0.01 | 64 | 1013.4 |
| 20260902204539 | 87 | 257 | 6.0 | 12.0 | 0.00 | 0.01 | 0.01 | 65 | 1013.2 |
| 20260902204018 | 87 | 263 | 5.0 | 11.0 | 0.00 | 0.01 | 0.01 | 66 | 1013.4 |
| 20260902203519 | 86 | 252 | 4.0 | 9.0 | 0.00 | 0.01 | 0.01 | 66 | 1013.2 |
| 20260902203040 | 87 | 230 | 4.0 | 9.0 | 0.00 | 0.01 | 0.01 | 67 | 1013.3 |
| 20260902202520 | 87 | 254 | 3.0 | 8.0 | 0.00 | 0.01 | 0.01 | 67 | 1013.4 |
| 20260902202020 | 87 | 257 | 3.0 | 11.0 | 0.00 | 0.01 | 0.01 | 67 | 1013.4 |
| 20260902201541 | 86 | 296 | 5.0 | 11.0 | 0.00 | 0.01 | 0.01 | 67 | 1013.3 |
| 20260902201018 | 86 | 252 | 4.0 | 10.0 | 0.00 | 0.01 | 0.01 | 67 | 1013.3 |
| 20260902200518 | 86 | 275 | 4.0 | 9.0 | 0.00 | 0.01 | 0.01 | 67 | 1013.4 |
| 20260902200041 | 86 | 240 | 3.0 | 10.0 | 0.00 | 0.01 | 0.01 | 67 | 1013.4 |
| 20260902195516 | 86 | 263 | 3.0 | 10.0 | 0.00 | 0.01 | 0.01 | 67 | 1013.4 |
| 20260902195022 | 86 | 173 | 3.0 | 10.0 | 0.00 | 0.01 | 0.01 | 66 | 1013.5 |
| 20260902194539 | 86 | 183 | 5.0 | 11.0 | 0.00 | 0.01 | 0.01 | 66 | 1013.5 |
| 20260902194019 | 87 | 227 | 3.0 | 12.0 | 0.00 | 0.01 | 0.01 | 65 | 1013.5 |
| 20260902193521 | 86 | 166 | 6.0 | 12.0 | 0.00 | 0.01 | 0.01 | 65 | 1013.4 |
| 20260902193038 | 87 | 201 | 2.0 | 7.0 | 0.00 | 0.01 | 0.01 | 68 | 1013.5 |
| 20260902192516 | 85 | 223 | 4.0 | 9.0 | 0.00 | 0.01 | 0.01 | 67 | 1013.6 |
| 20260902192018 | 85 | 284 | 3.0 | 9.0 | 0.00 | 0.01 | 0.01 | 68 | 1013.5 |
| 20260902191540 | 85 | 177 | 3.0 | 9.0 | 0.00 | 0.01 | 0.01 | 67 | 1013.7 |
| 20260902191018 | 84 | 198 | 3.0 | 9.0 | 0.00 | 0.01 | 0.01 | 67 | 1013.6 |
| 20260902190518 | 84 | 289 | 4.0 | 7.0 | 0.00 | 0.01 | 0.01 | 68 | 1013.7 |
| 20260902190040 | 84 | 154 | 2.0 | 6.0 | 0.00 | 0.01 | 0.01 | 70 | 1013.7 |
| 20260902185522 | 83 | 158 | 2.0 | 6.0 | 0.00 | 0.01 | 0.01 | 69 | 1013.7 |
| 20260902185021 | 83 | 132 | 2.0 | 6.0 | 0.00 | 0.01 | 0.01 | 69 | 1013.6 |
| 20260902184544 | 83 | 197 | 2.0 | 7.0 | 0.00 | 0.01 | 0.01 | 70 | 1013.7 |
| 20260902184021 | 82 | 221 | 3.0 | 7.0 | 0.00 | 0.01 | 0.01 | 69 | 1013.8 |
| 20260902183518 | 82 | 211 | 3.0 | 6.0 | 0.00 | 0.01 | 0.01 | 71 | 1013.8 |
| 20260902183044 | 82 | 182 | 3.0 | 5.0 | 0.00 | 0.01 | 0.01 | 69 | 1013.8 |
| 20260902182521 | 82 | 186 | 2.0 | 5.0 | 0.00 | 0.01 | 0.01 | 70 | 1013.8 |
| 20260902182019 | 81 | 169 | 1.0 | 7.0 | 0.00 | 0.01 | 0.01 | 70 | 1013.8 |
| 20260902181542 | 81 | 165 | 3.0 | 8.0 | 0.00 | 0.01 | 0.01 | 71 | 1013.9 |
| 20260902181024 | 81 | 142 | 3.0 | 8.0 | 0.00 | 0.01 | 0.01 | 70 | 1013.9 |
| 20260902180520 | 81 | 168 | 4.0 | 7.0 | 0.00 | 0.01 | 0.01 | 70 | 1014.0 |
| 20260902180039 | 81 | 148 | 3.0 | 7.0 | 0.00 | 0.01 | 0.01 | 71 | 1014.2 |
| 20260902175522 | 81 | 182 | 3.0 | 6.0 | 0.00 | 0.01 | 0.01 | 69 | 1014.2 |
| 20260902175021 | 81 | 204 | 3.0 | 9.0 | 0.00 | 0.01 | 0.01 | 69 | 1014.3 |
| 20260902174548 | 80 | 163 | 4.0 | 10.0 | 0.00 | 0.01 | 0.01 | 69 | 1014.1 |
| 20260902174020 | 80 | 161 | 5.0 | 10.0 | 0.00 | 0.01 | 0.01 | 69 | 1014.2 |
| 20260902173520 | 81 | 154 | 6.0 | 10.0 | 0.00 | 0.01 | 0.01 | 69 | 1014.4 |
| 20260902173106 | 81 | 152 | 3.0 | 6.0 | 0.00 | 0.01 | 0.01 | 68 | 1014.5 |
| 20260902172521 | 81 | 163 | 2.0 | 9.0 | 0.00 | 0.01 | 0.01 | 68 | 1014.4 |
| 20260902172028 | 80 | 184 | 3.0 | 9.0 | 0.00 | 0.01 | 0.01 | 69 | 1014.6 |
| 20260902171544 | 81 | 144 | 3.0 | 6.0 | 0.00 | 0.01 | 0.01 | 68 | 1014.6 |
| 20260902171025 | 81 | 150 | 1.0 | 7.0 | 0.00 | 0.01 | 0.01 | 68 | 1014.6 |
| 20260902170517 | 80 | 205 | 3.0 | 7.0 | 0.00 | 0.01 | 0.01 | 68 | 1014.7 |
| 20260902170043 | 79 | 175 | 3.0 | 6.0 | 0.00 | 0.01 | 0.01 | 70 | 1014.7 |
| 20260902165522 | 80 | 165 | 3.0 | 8.0 | 0.00 | 0.01 | 0.01 | 70 | 1014.7 |
| 20260902165022 | 79 | 147 | 4.0 | 8.0 | 0.01 | 0.01 | 0.01 | 70 | 1014.7 |
| 20260902164539 | 80 | 175 | 3.0 | 7.0 | 0.01 | 0.01 | 0.01 | 68 | 1014.7 |
| 20260902164023 | 80 | 105 | 2.0 | 7.0 | 0.01 | 0.01 | 0.01 | 69 | 1014.6 |
| 20260902163520 | 79 | 113 | 2.0 | 5.0 | 0.01 | 0.01 | 0.01 | 75 | 1014.6 |
| 20260902163039 | 79 | 119 | 1.0 | 4.0 | 0.01 | 0.01 | 0.01 | 74 | 1014.7 |
| 20260902162519 | 78 | 95 | 1.0 | 4.0 | 0.01 | 0.01 | 0.01 | 77 | 1014.9 |
| 20260902162019 | 76 | 59 | 1.0 | 4.0 | 0.01 | 0.01 | 0.01 | 79 | 1015.0 |
| 20260902161543 | 76 | 148 | 1.0 | 4.0 | 0.01 | 0.01 | 0.01 | 78 | 1015.0 |
| 20260902161019 | 76 | 0 | 1.0 | 4.0 | 0.01 | 0.01 | 0.01 | 78 | 1015.2 |
| 20260902160523 | 76 | 67 | 2.0 | 4.0 | 0.01 | 0.01 | 0.01 | 77 | 1015.2 |
| 20260902160055 | 76 | 58 | 0.0 | 2.0 | 0.01 | 0.01 | 0.01 | 81 | 1015.3 |
| 20260902155522 | 75 | 68 | 1.0 | 2.0 | 0.01 | 0.01 | 0.01 | 78 | 1015.4 |
| 20260902155022 | 75 | 82 | 1.0 | 4.0 | 0.00 | 0.00 | 0.00 | 77 | 1015.4 |
| 20260902154544 | 76 | 57 | 2.0 | 8.0 | 0.00 | 0.00 | 0.00 | 74 | 1015.1 |
| 20260902154024 | 77 | 60 | 2.0 | 9.0 | 0.00 | 0.00 | 0.00 | 72 | 1015.1 |
| 20260902153523 | 77 | 115 | 4.0 | 9.0 | 0.00 | 0.00 | 0.00 | 71 | 1014.5 |
| 20260902153042 | 76 | 186 | 6.0 | 9.0 | 0.00 | 0.00 | 0.00 | 71 | 1014.3 |
| 20260902152519 | 77 | 163 | 5.0 | 9.0 | 0.00 | 0.00 | 0.00 | 71 | 1014.4 |
| 20260902152019 | 77 | 163 | 3.0 | 9.0 | 0.00 | 0.00 | 0.00 | 72 | 1014.4 |
| 20260902151542 | 78 | 140 | 3.0 | 9.0 | 0.00 | 0.00 | 0.00 | 70 | 1014.4 |
| 20260902151018 | 77 | 158 | 5.0 | 9.0 | 0.00 | 0.00 | 0.00 | 69 | 1014.5 |
| 20260902150520 | 78 | 179 | 1.0 | 8.0 | 0.00 | 0.00 | 0.00 | 71 | 1014.5 |
| 20260902150045 | 77 | 138 | 4.0 | 8.0 | 0.00 | 0.00 | 0.00 | 72 | 1014.5 |
| 20260902145518 | 76 | 188 | 2.0 | 7.0 | 0.00 | 0.00 | 0.00 | 72 | 1014.7 |
| 20260902145019 | 75 | 153 | 3.0 | 7.0 | 0.00 | 0.00 | 0.00 | 75 | 1014.9 |
| 20260902144539 | 75 | 173 | 2.0 | 6.0 | 0.00 | 0.00 | 0.00 | 77 | 1015.0 |
| 20260902144021 | 74 | 165 | 2.0 | 6.0 | 0.00 | 0.00 | 0.00 | 78 | 1015.1 |
| 20260902143522 | 74 | 149 | 3.0 | 5.0 | 0.00 | 0.00 | 0.00 | 77 | 1015.1 |
| 20260902143040 | 75 | 94 | 0.0 | 3.0 | 0.00 | 0.00 | 0.00 | 77 | 1015.2 |
| 20260902142527 | 75 | 74 | 1.0 | 3.0 | 0.00 | 0.00 | 0.00 | 76 | 1015.3 |
| 20260902142021 | 75 | 86 | 1.0 | 3.0 | 0.00 | 0.00 | 0.00 | 77 | 1015.3 |
| 20260902141551 | 75 | 162 | 0.0 | 2.0 | 0.00 | 0.00 | 0.00 | 76 | 1015.2 |
| 20260902141020 | 75 | 57 | 0.0 | 3.0 | 0.00 | 0.00 | 0.00 | 76 | 1015.3 |
| 20260902140521 | 75 | 46 | 0.0 | 4.0 | 0.00 | 0.00 | 0.00 | 76 | 1015.3 |
| 20260902140045 | 74 | 68 | 0.0 | 4.0 | 0.00 | 0.00 | 0.00 | 77 | 1015.4 |
| 20260902135520 | 74 | 335 | 2.0 | 4.0 | 0.00 | 0.00 | 0.00 | 77 | 1015.4 |
| 20260902135018 | 74 | 109 | 1.0 | 5.0 | 0.00 | 0.00 | 0.00 | 75 | 1015.5 |
| 20260902134540 | 74 | 0 | 0.0 | 5.0 | 0.00 | 0.00 | 0.00 | 78 | 1015.3 |
| 20260902134023 | 73 | 166 | 2.0 | 4.0 | 0.00 | 0.00 | 0.00 | 78 | 1015.2 |
| 20260902133524 | 74 | 173 | 1.0 | 3.0 | 0.00 | 0.00 | 0.00 | 76 | 1015.2 |
| 20260902133047 | 74 | 19 | 1.0 | 3.0 | 0.00 | 0.00 | 0.00 | 78 | 1015.3 |
| 20260902132520 | 73 | 128 | 1.0 | 3.0 | 0.00 | 0.00 | 0.00 | 80 | 1015.1 |
| 20260902132017 | 73 | 160 | 1.0 | 2.0 | 0.00 | 0.00 | 0.00 | 79 | 1015.1 |
| 20260902131546 | 72 | 82 | 0.0 | 4.0 | 0.00 | 0.00 | 0.00 | 79 | 1015.2 |
| 20260902131020 | 72 | 113 | 1.0 | 4.0 | 0.00 | 0.00 | 0.00 | 80 | 1015.2 |
| 20260902130521 | 72 | 96 | 1.0 | 5.0 | 0.00 | 0.00 | 0.00 | 80 | 1015.3 |
| 20260902130044 | 72 | 181 | 2.0 | 5.0 | 0.00 | 0.00 | 0.00 | 80 | 1015.3 |
| 20260902125524 | 72 | 163 | 1.0 | 4.0 | 0.00 | 0.00 | 0.00 | 81 | 1015.4 |
| 20260902125019 | 72 | 125 | 1.0 | 4.0 | 0.00 | 0.00 | 0.00 | 81 | 1015.4 |
| 20260902124553 | 72 | 117 | 1.0 | 3.0 | 0.00 | 0.00 | 0.00 | 81 | 1015.4 |
| 20260902124023 | 72 | 95 | 1.0 | 3.0 | 0.00 | 0.00 | 0.00 | 81 | 1015.4 |
| 20260902123524 | 71 | 71 | 1.0 | 2.0 | 0.00 | 0.00 | 0.00 | 81 | 1015.5 |
| 20260902123053 | 71 | 80 | 1.0 | 3.0 | 0.00 | 0.00 | 0.00 | 82 | 1015.5 |
| 20260902122521 | 71 | 5 | 0.0 | 3.0 | 0.00 | 0.00 | 0.00 | 82 | 1015.5 |
| 20260902122021 | 71 | 352 | 2.0 | 3.0 | 0.00 | 0.00 | 0.00 | 82 | 1015.8 |
| 20260902121539 | 70 | 76 | 0.0 | 3.0 | 0.00 | 0.00 | 0.00 | 82 | 1015.7 |
| 20260902121017 | 70 | 55 | 1.0 | 3.0 | 0.00 | 0.00 | 0.00 | 82 | 1015.6 |
| 20260902120521 | 70 | 24 | 1.0 | 3.0 | 0.00 | 0.00 | 0.00 | 82 | 1015.8 |
| 20260902120038 | 70 | 74 | 1.0 | 6.0 | 0.00 | 0.00 | 0.00 | 82 | 1015.8 |
| 20260902115521 | 70 | 53 | 3.0 | 7.0 | 0.00 | 0.00 | 0.00 | 82 | 1015.8 |
| 20260902115022 | 70 | 68 | 2.0 | 9.0 | 0.00 | 0.00 | 0.00 | 81 | 1015.7 |
| 20260902114541 | 71 | 30 | 3.0 | 9.0 | 0.00 | 0.00 | 0.00 | 81 | 1015.8 |
| 20260902114017 | 71 | 338 | 4.0 | 9.0 | 0.00 | 0.00 | 0.00 | 80 | 1015.8 |
| 20260902113519 | 71 | 17 | 3.0 | 8.0 | 0.00 | 0.00 | 0.00 | 80 | 1015.6 |
| 20260902113034 | 71 | 15 | 3.0 | 11.0 | 0.00 | 0.00 | 0.00 | 80 | 1015.8 |
| 20260902112519 | 72 | 340 | 3.0 | 11.0 | 0.00 | 0.00 | 0.00 | 80 | 1016.0 |
| 20260902112022 | 72 | 62 | 5.0 | 15.0 | 0.00 | 0.00 | 0.00 | 79 | 1016.1 |
| 20260902111546 | 73 | 13 | 6.0 | 15.0 | 0.00 | 0.00 | 0.00 | 78 | 1016.0 |
| 20260902111020 | 73 | 304 | 6.0 | 15.0 | 0.00 | 0.00 | 0.00 | 78 | 1016.2 |
| 20260902110525 | 74 | 313 | 9.0 | 16.0 | 0.00 | 0.00 | 0.00 | 78 | 1016.1 |
| 20260902110045 | 74 | 352 | 9.0 | 20.0 | 0.00 | 0.00 | 0.00 | 78 | 1015.8 |
| 20260902105524 | 73 | 329 | 10.0 | 22.0 | 0.00 | 0.00 | 0.00 | 80 | 1015.5 |
| 20260902105019 | 72 | 338 | 7.0 | 22.0 | 0.00 | 0.00 | 0.00 | 84 | 1015.9 |
| 20260902104538 | 71 | 328 | 15.0 | 21.0 | 0.00 | 0.00 | 0.00 | 89 | 1016.0 |
| 20260902104018 | 71 | 279 | 0.0 | 2.0 | 0.00 | 0.00 | 0.00 | 89 | 1014.4 |
| 20260902103516 | 71 | 0 | 0.0 | 2.0 | 0.00 | 0.00 | 0.00 | 89 | 1014.4 |
| 20260902103036 | 71 | 0 | 0.0 | 2.0 | 0.00 | 0.00 | 0.00 | 89 | 1014.4 |
| 20260902102519 | 71 | 0 | 1.0 | 2.0 | 0.00 | 0.00 | 0.00 | 89 | 1014.4 |
| 20260902102019 | 71 | 0 | 0.0 | 2.0 | 0.00 | 0.00 | 0.00 | 89 | 1014.4 |
| 20260902101545 | 72 | 279 | 1.0 | 2.0 | 0.00 | 0.00 | 0.00 | 89 | 1014.4 |
| 20260902101018 | 72 | 242 | 1.0 | 2.0 | 0.00 | 0.00 | 0.00 | 88 | 1014.4 |
| 20260902100516 | 72 | 196 | 1.0 | 2.0 | 0.00 | 0.00 | 0.00 | 89 | 1014.3 |
| 20260902100036 | 72 | 185 | 1.0 | 3.0 | 0.00 | 0.00 | 0.00 | 89 | 1014.2 |
| 20260902095517 | 72 | 188 | 1.0 | 3.0 | 0.00 | 0.00 | 0.00 | 89 | 1014.2 |
| 20260902095018 | 72 | 153 | 1.0 | 3.0 | 0.00 | 0.00 | 0.00 | 89 | 1014.3 |
| 20260902094540 | 72 | 192 | 1.0 | 3.0 | 0.00 | 0.00 | 0.00 | 89 | 1014.2 |
| 20260902094021 | 72 | 173 | 1.0 | 3.0 | 0.00 | 0.00 | 0.00 | 89 | 1014.4 |